SCP
0 0 0 0 0 0 0 0 0 0 0 0 0 0 0 0 0 0 0 0 0 0 0 0 0 0 0 0 0 0 0 0 0 0 0 0 0 0 0 0 0 0 0
0 0 0 0 0 0 0 0 0 0 0 0 0 0 0 0 0 0 0 0 0 0 0 0 0 0 0 0 0 0 0 0 0 0 0 0 0 0 0 0 0 0 0
0 0 0 0 0 0 0 0 0 0 0 0 0 0 0 0 0 0 0 0 0 0 0 0 0 0 0 0 0 0 0 0 0 0 0 0 0 0 0 0 0 0 0
0 0 0 0 0 0 0 0 0 0 0 0 0 0 0 0 0 0 0 0 0 0 0 0 0 0 0 0 0 0 0 0 0 0 0 0 0 0 0 0 0 0 0
0 0 0 0 0 0 0 0 0 0 0 0 0 0 0 0 0 0 0 0 0 0 0 0 0 0 0 0 0 0 0 0 0 0 0 0 0 0 0 0 0 0 0
0 0 0 0 0 0 0 0 0 0 0 0 0 0 0 0 0 0 0 0 0 0 0 0 0 0 0 0 0 0 0 0 0 0 0 0 0 0 0 0 0 0 0
0 0 0 0 0 0 0 0 0 0 0 0 0 0 0 0 0 0 0 0 0 0 0 0 0 0 0 0 0 0 0 0 0 0 0 0 0 0 0 0 0 0 0
0 0 0 0 0 0 0 0 0 0 0 0 0 0 0 0 0 0 0 0 0 0 0 0 0 0 0 0 0 0 0 0 0 0 0 0 0 0 0 0 0 0 0
0 0 0 0 0 0 0 0 0 0 0 0 0 0 0 0 0 0 0 0 0 0 0 0 0 0 0 0 0 0 0 0 0 0 0 0 0 0 0 0 0 0 0
0 0 0 0 0 0 0 0 0 0 0 0 0 0 0 0 0 0 0 0 0 0 0 0 0 0 0 0 0 0 0 0 0 0 0 0 0 0 0 0 0 0 0
0 0 0 0 0 0 0 0 0 0 0 0 0 0 0 0 0 0 0 0 0 0 0 0 0 0 0 0 0 0 0 0 0 0 0 0 0 0 0 0 0 0 0
0 0 0 0 0 0 0 0 0 0 0 0 0 0 0 0 0 0 0 0 0 0 0 0 0 0 0 0 0 0 0 0 0 0 0 0 0 0 0 0 0 0 0
0 0 0 0 0 0 0 0 0 0 0 0 0 0 0 0 0 0 0 0 0 0 0 0 0 0 0 0 0 0 0 0 0 0 0 0 0 0 0 0 0 0 0
0 0 0 0 0 0 0 0 0 0 0 0 0 0 0 0 0 0 0 0 0 0 0 0 0 0 0 0 0 0 0 0 0 0 0 0 0 0 0 0 0 0 0
0 0 0 0 0 0 0 0 0 0 0 0 0 0 0 0 0 0 0 0 0 0 0 0 0 0 0 0 0 0 0 0 0 0 0 0 0 0 0 0 0 0 0
0 0 0 0 0 0 0 0 0 0 0 0 0 0 0 0 0 0 0 0 0 0 0 0 0 0 0 0 0 0 0 0 0 0 0 0 0 0 0 0 0 0 0
0 0 0 0 0 0 0 0 0 0 0 0 0 0 0 0 0 0 0 0 0 0 0 0 0 0 0 0 0 0 0 0 0 0 0 0 0 0 0 0 0 0 0
0 0 0 0 0 0 0 0 0 0 0 0 0 0 0 0 0 0 0 0 0 0 0 0 0 0 0 0 0 0 0 0 0 0 0 0 0 0 0 0 0 0 0
0 0 0 0 0 0 0 0 0 0 0 0 0 0 0 0 0 0 0 0 0 0 0 0 0 0 0 0 0 0 0 0 0 0 0 0 0 0 0 0 0 0 0
0 0 0 0 0 0 0 0 0 0 0 0 0 0 0 0 0 0 0 0 0 0 0 0 0 0 0 0 0 0 0 -0 0 0 0 0 0 0 0 0 0 0 0
0 0 0 0 0 0 0 0 0 0 0 0 0 0 0 0 0 0 0 0 0 0 0 0 0 0 0 0 0 -0 -0 -0 -0 0 0 0 0 0 0 0 0 0 0
0 0 0 0 0 0 0 0 0 0 0 0 0 0 0 0 0 0 0 0 0 0 0 0 0 0 0 -0 -0 -0 -0 -0 -0 -0 0 0 0 0 0 0 0 0 0
0 0 0 0 0 0 0 0 0 0 0 0 0 0 0 0 0 0 0 0 0 0 0 0 0 0 0 0 -0 -0 -0 -0 -0 0 0 0 0 0 0 0 0 0 0
0 0 0 0 0 0 0 0 0 0 0 0 0 0 0 0 0 0 0 0 0 0 0 0 0 0 0 0 0 -0 -0 0 0 0 0 0 0 0 0 0 0 0 0
0 0 0 0 0 0 0 0 0 0 0 0 0 0 0 0 0 0 0 0 0 0 0 0 0 0 0 0 0 -0 -0 0 0 0 0 0 0 0 0 0 0 0 0
0 0 0 0 0 0 0 0 0 0 0 0 0 0 0 0 0 0 0 0 0 0 0 0 0 -0 -0 -0 -0 -0 -0 0 0 0 0 0 0 0 0 0 0 0 0
Wind_Speed
11 10 10 10 10 9 8 8 7 6 5 4 4 3 3 3 2 2 2 3 4 4 4 4 4 4 3 4 4 3 3 3 3 1 1 1 2 2 2 2 3 4 4
10 10 10 10 10 10 10 10 9 9 7 6 5 5 5 4 3 2 2 2 3 3 4 4 4 3 4 3 3 4 4 3 3 3 2 1 2 1 2 2 2 2 2
10 10 11 11 11 10 10 10 9 9 8 8 7 6 6 5 4 3 2 2 3 2 3 3 3 4 4 3 4 3 3 3 3 2 2 1 1 1 1 2 2 1 2
9 10 10 10 10 10 10 10 10 9 9 8 8 7 6 6 5 4 3 2 2 2 2 2 2 3 3 3 3 3 3 3 3 3 2 2 2 1 1 2 3 2 2
9 10 10 10 10 10 10 10 9 9 10 9 9 8 7 6 7 6 3 2 3 3 3 3 3 4 6 3 1 2 3 3 3 3 3 3 2 2 1 1 3 3 4
9 10 9 10 10 10 10 10 10 10 10 10 9 8 8 7 9 8 5 3 3 3 4 4 5 5 7 7 6 5 3 2 3 3 2 2 3 3 2 1 2 2 3
9 9 9 9 10 10 9 9 9 9 9 9 9 9 9 10 11 10 7 4 4 4 4 4 4 4 4 7 8 8 8 7 3 2 4 3 3 3 2 2 2 3 3
8 9 9 9 9 9 9 9 9 8 8 8 9 9 9 10 12 10 7 5 6 5 5 4 4 5 5 4 6 7 8 8 5 4 6 6 5 3 3 3 4 5 5
8 8 8 9 9 9 9 9 8 7 8 8 8 9 9 10 12 10 6 5 6 7 6 6 5 6 6 3 5 8 9 8 11 13 12 10 10 9 5 2 3 3 4
6 7 7 7 8 8 8 8 7 6 7 7 8 8 9 10 12 12 8 4 5 5 5 6 9 7 6 5 4 6 7 7 7 8 7 7 7 7 5 3 2 2 3
5 5 6 6 7 7 7 6 6 6 7 7 7 8 9 10 11 13 11 5 5 5 5 5 6 8 7 7 5 6 6 5 6 6 5 5 5 6 6 6 6 4 3
4 4 5 6 6 5 6 7 7 7 7 7 7 7 7 8 9 11 12 10 7 6 5 5 7 9 10 8 7 8 5 3 5 5 5 5 5 5 5 6 7 8 7
3 4 4 5 5 5 6 6 6 6 6 6 6 6 6 6 6 9 10 10 9 7 7 10 9 7 7 9 10 5 2 3 4 5 5 5 4 5 5 5 6 7 9
3 3 3 4 4 5 5 5 6 6 6 6 6 5 5 5 6 5 4 5 6 6 6 8 9 9 7 7 5 5 5 5 4 5 5 4 4 4 3 3 3 4 5
2 3 3 3 3 3 4 5 5 6 6 6 5 5 5 5 7 9 6 5 4 4 3 3 4 4 5 5 5 5 5 4 5 4 4 4 4 4 4 3 3 3 4
1 2 1 1 1 1 2 3 4 4 5 6 7 6 5 6 6 7 8 8 6 3 1 4 5 5 5 4 5 5 5 5 4 4 4 3 3 4 4 3 3 3 4
1 2 1 1 1 1 0 1 2 4 4 4 5 6 6 5 5 5 5 5 4 2 3 4 4 4 4 4 4 4 4 4 3 3 3 3 3 3 3 3 3 3 4
2 2 2 2 1 1 0 1 1 2 1 2 4 4 3 4 4 3 3 2 3 3 4 4 4 4 3 3 3 3 3 3 3 3 3 3 2 3 3 3 3 3 3
4 3 3 2 2 2 2 1 1 1 1 1 1 4 3 2 3 1 3 1 3 3 3 3 3 3 3 3 3 2 2 2 3 2 3 2 2 2 2 3 3 3 1
4 3 3 4 4 4 3 3 2 2 1 0 0 1 2 2 1 2 1 1 1 2 2 2 2 1 2 2 2 1 2 2 2 2 2 2 2 2 2 2 2 2 2
4 5 7 6 5 4 4 4 3 3 2 1 1 1 1 2 1 1 1 1 1 1 2 2 2 2 1 1 1 2 2 2 2 2 2 2 2 1 1 2 2 2 2
4 5 5 5 4 4 4 4 4 4 3 3 2 4 6 4 2 2 2 2 2 2 2 2 2 2 2 2 2 2 2 2 2 2 2 2 2 2 2 2 2 2 2
5 5 6 5 5 5 5 6 5 5 4 4 4 4 5 5 4 3 3 3 3 3 3 3 3 3 3 3 2 3 3 3 2 2 2 3 3 3 2 3 3 2 2
6 6 6 6 5 5 6 6 6 5 5 5 5 5 5 5 5 5 5 4 5 5 5 5 4 5 6 4 3 3 3 2 2 3 3 3 3 3 3 3 3 3 3
6 6 6 6 6 6 6 6 6 6 6 6 6 6 6 6 6 6 6 6 7 6 7 6 5 6 7 8 6 4 4 2 2 3 4 4 4 4 4 4 4 4 3
6 6 6 6 6 6 6 6 6 6 6 6 6 6 6 6 6 6 6 7 7 7 7 7 8 8 8 8 8 6 7 6 5 5 5 5 5 5 5 4 5 5 5
Wind_Direction
13 16 22 24 24 27 28 27 28 33 35 51 65 76 82 95 120 144 167 184 191 187 188 192 197 191 191 196 199 206 212 216 227 207 205 197 216 220 185 219 204 210 178
15 22 26 27 28 31 31 28 32 39 41 47 57 69 74 72 76 92 119 151 161 175 176 178 182 171 186 185 188 195 198 201 213 208 183 195 210 197 220 195 200 207 173
18 23 27 27 29 31 32 30 32 35 38 45 52 56 63 64 63 71 91 114 132 152 164 169 175 174 180 178 182 179 184 185 195 193 171 152 154 160 176 151 157 141 131
21 25 27 25 28 30 32 31 33 34 36 40 44 48 53 55 51 53 62 76 92 106 121 130 144 158 161 170 175 172 172 166 174 175 159 147 125 141 177 151 132 113 105
24 27 26 27 31 32 32 32 34 35 36 38 40 41 44 47 41 35 49 76 87 98 102 101 86 75 64 71 113 155 164 161 158 157 148 139 135 144 133 135 119 117 92
29 29 27 27 30 31 32 33 35 35 35 36 37 37 41 42 40 38 28 71 85 93 98 96 108 113 104 96 79 66 53 130 148 147 140 134 118 111 101 120 134 143 105
32 32 28 29 30 31 33 34 33 37 38 36 35 37 42 42 38 42 34 51 71 74 84 96 94 98 127 118 115 116 87 62 36 99 114 103 103 104 118 114 99 83 82
30 30 29 28 31 32 33 33 32 35 38 36 35 36 41 42 39 38 29 58 66 65 64 76 95 100 83 101 113 102 88 72 53 72 82 73 64 70 81 89 98 106 105
28 25 25 27 30 32 32 31 31 33 38 39 39 38 40 42 38 33 24 65 70 66 59 54 58 87 58 27 114 109 102 89 71 68 69 77 65 40 12 113 134 139 114
28 26 27 29 31 33 33 30 32 37 40 45 45 40 39 40 38 32 21 59 69 73 71 70 55 62 62 7 112 114 109 107 112 111 106 116 96 76 21 50 49 88 114
34 36 33 33 37 34 33 35 38 43 45 47 50 48 45 40 41 37 26 42 61 71 71 68 65 64 63 39 38 83 89 103 106 100 93 83 74 66 58 52 44 33 61
53 52 45 38 34 36 37 35 38 38 44 46 47 49 46 48 43 42 43 41 37 72 68 69 73 71 69 57 65 77 76 90 105 103 93 82 75 71 67 66 65 63 59
74 66 57 55 49 39 36 37 38 38 38 38 40 41 41 42 59 65 60 55 45 64 70 69 71 77 96 85 76 72 97 96 96 94 88 80 75 77 82 81 80 77 71
86 77 72 64 58 53 38 33 35 29 31 35 33 34 37 40 31 27 61 89 98 94 96 98 92 75 79 88 93 77 69 65 77 90 92 94 96 91 82 86 95 100 89
113 105 91 77 60 52 56 37 28 44 26 13 21 22 24 34 26 11 12 38 45 56 81 98 90 91 83 79 78 74 78 89 86 88 95 100 100 93 82 73 73 91 96
136 118 108 107 96 61 69 101 83 53 59 44 27 12 54 48 33 39 47 50 46 7 74 92 86 83 82 84 86 85 80 75 76 81 86 90 93 94 91 85 87 92 96
195 165 165 181 165 173 33 19 97 140 144 93 57 39 40 44 45 50 57 60 40 340 95 90 88 86 84 84 84 83 81 78 76 83 86 90 96 97 96 95 95 95 95
209 180 205 202 221 228 257 333 359 3 72 117 116 86 63 58 51 33 319 250 99 81 79 85 87 86 85 87 88 92 95 95 90 90 91 90 93 100 99 98 92 92 103
209 203 206 211 219 227 231 245 261 287 337 39 115 131 139 159 145 34 308 20 76 88 92 91 89 95 94 92 90 94 99 100 100 103 96 96 99 104 105 107 100 90 106
211 200 231 227 221 221 224 234 243 254 268 270 288 93 153 202 193 133 111 70 92 105 113 119 115 112 112 110 115 131 136 129 135 132 117 118 112 114 121 119 119 137 125
222 197 204 232 233 233 235 239 242 247 256 255 213 109 302 245 218 165 164 163 163 156 157 155 159 171 171 174 182 179 182 159 157 158 148 148 145 141 134 130 131 136 131
228 223 217 226 228 230 237 238 240 241 242 241 218 169 187 233 224 211 201 194 191 196 190 195 193 183 196 209 219 216 204 191 182 184 174 164 168 171 166 160 158 159 159
233 230 227 226 229 220 231 238 235 237 237 234 228 213 200 217 219 218 211 200 193 194 194 205 209 198 199 207 220 235 224 197 190 199 197 188 194 189 186 175 178 190 178
230 232 234 233 230 233 235 237 235 234 237 236 229 224 222 220 221 216 213 203 199 199 199 206 215 212 207 209 213 217 220 198 201 203 220 223 214 210 204 199 205 204 195
230 233 234 237 235 234 238 240 239 235 232 234 234 229 224 221 220 214 209 204 205 206 205 207 208 212 213 212 213 210 143 123 276 280 218 225 223 220 222 215 214 213 216
228 234 237 238 240 241 243 244 243 241 238 235 234 233 228 224 221 215 208 204 204 206 207 208 212 212 212 215 212 186 163 187 211 250 261 238 224 222 221 222 219 223 219